Location: Zagreb
(45.8000°N, 16.0000°E)
Time: 20:07:25
(UTC+01:00)

DX 1 - Pass Details

Date: 04 November 2020
Orbit: 619 x 630 km, 98.5° (Epoch: 01 December)

Event Time Altitude Azimuth Distance (km) Brightness Sun altitude
Exits shadow 19:16:36 - 359° (N) 2,209 ? -28.0°
Reaches altitude 10° 19:17:09 10° 356° (N) 2,003 ? -28.1°
Maximum altitude 19:21:02 33° 293° (WNW) 1,066 ? -28.8°
Drops below altitude 10° 19:24:54 10° 230° (SW) 1,995 ? -29.4°
Sets 19:27:15 0° 220° (SW) 2,899 ? -29.8°
